This is the latest recevied weather packets stored in our database for station/object MB7UUE. If no packets are shown the sender has not sent any weather packets the latest 1 day(s).
| Time | Temp. | Humidity | Pressure | Rain* | Wind** | Luminosity | Snow |
|---|---|---|---|---|---|---|---|
| 1836274537 | 15° C | 87% | 1012.3 hPa | 0 mm | 0 m/s | - | - |
| 1836274159 | 15° C | 87% | 1012.3 hPa | 0 mm | 0 m/s | - | - |
| 1778071155 | 12.78° C | 61% | 1012.9 hPa | 0 mm | 0 m/s | - | - |
| 1778070014 | 12.22° C | 63% | 1012.9 hPa | 0 mm | 1.34 m/s, 337° | - | - |
| 1778068874 | 12.22° C | 60% | 1013 hPa | 0 mm | 3.13 m/s, 326° | - | - |
| 1778067734 | 12.78° C | 59% | 1012.9 hPa | 0 mm | 2.68 m/s, 326° | - | - |
| 1778066594 | 12.78° C | 59% | 1012.9 hPa | 0 mm | 3.58 m/s, 335° | - | - |
| 1778065455 | 12.78° C | 58% | 1012.9 hPa | 0 mm | 2.68 m/s, 338° | - | - |
| 1778064314 | 12.22° C | 55% | 1012.8 hPa | 0 mm | 3.13 m/s, 328° | - | - |
| 1778063174 | 12.22° C | 58% | 1012.9 hPa | 0 mm | 3.13 m/s, 322° | - | - |
| 1778062034 | 12.22° C | 59% | 1012.9 hPa | 0 mm | 4.47 m/s, 342° | - | - |
| 1778060895 | 11.67° C | 59% | 1012.9 hPa | 0 mm | 0.89 m/s, 326° | - | - |
| 1778059754 | 11.11° C | 63% | 1012.9 hPa | 0 mm | 0.45 m/s, 312° | - | - |
| 1778058614 | 11.11° C | 65% | 1013 hPa | 0 mm | 2.68 m/s, 327° | - | - |
| 1778057474 | 11.11° C | 66% | 1012.9 hPa | 0 mm | 1.34 m/s, 340° | - | - |
| 1778056336 | 10° C | 69% | 1012.9 hPa | 0 mm | 0.45 m/s, 327° | - | - |
| 1778055195 | 10° C | 69% | 1012.9 hPa | 0 mm | 0.45 m/s, 329° | - | - |
| 1778054055 | 10° C | 72% | 1012.9 hPa | 0 mm | 1.34 m/s, 333° | - | - |
| 1778052914 | 9.44° C | 72% | 1012.8 hPa | 0 mm | 2.24 m/s, 320° | - | - |
| 1778051775 | 9.44° C | 72% | 1012.8 hPa | 0 mm | 2.24 m/s, 335° | - | - |
| 1778050634 | 9.44° C | 74% | 1012.6 hPa | 0 mm | 1.34 m/s, 337° | - | - |
| 1778049495 | 8.33° C | 78% | 1012.4 hPa | 0 mm | 2.68 m/s, 336° | - | - |
| 1778048355 | 8.33° C | 78% | 1012.5 hPa | 0 mm | 3.13 m/s, 325° | - | - |
| 1778047216 | 7.78° C | 78% | 1012.4 hPa | 0 mm | 1.34 m/s, 326° | - | - |
| 1778046074 | 7.78° C | 78% | 1012.4 hPa | 0 mm | 0.45 m/s, 308° | - | - |
* Rain latest hour (hover to see other rain measurements)
** Current wind speed in m/s (hover to see current wind gust speed)